Weather in Severny Kaduy

Russia / Irkutsk Oblast     54°40′24″N   100°05′51″E
temp.,
°C
wind,
m/s
gust,
m/s
humid.,
%
clouds,
%
prec.,
mm/h
press.,
hPa
HPBL,
m
7 may, fri
fri723:00+3n3795100 0.3 1014448
02:00+2n1592100 0.3 1015220
05:00+1ese1193100 0.0 101534
08:00+1se2488100 0.0 1016303
11:00+5ese345999 0.0 1014768
14:00+9ese4443100 0.0 10121010
17:00+10se4541100 0.0 10101109
20:00+8se4952100 0.0 1010512
8 may, sat
sat823:00+5sse41179100 0.6 1010486
02:00+4sse41096100 7.9 1009412
05:00+7nw5149079 2.0 10111030
08:00+7nw4108636 2.0 1013904
11:00+11wnw5105648 0.2 10121827
14:00+12wnw5954100 0.8 10121925
17:00+11nw595861 0.4 10121663
20:00+8nw4973100 0.8 1014778
9 may, sun
sun923:00+6wsw2684100 0.1 1015152
02:00+4ssw2692100 0.1 1013140
05:00+5sw31090100 0.4 1011384
08:00+6wsw41089100 2.1 1010891
11:00+8wnw4769100 0.9 10101235
14:00+6nw5787100 1.8 1011757
17:00+8wnw5105796 0.4 10101820
20:00+5nw597010 0.5 10131142
10 may, mon
mon1023:00+2w3108558 0.0 1015494
02:000w31091100 0.0 1015574
05:000w41299100 3.4 1014589
08:00+2wnw71497100 8.4 10141050
11:00+3nw61297100 0.8 1016935
14:00+4nnw4996100 2.0 1017907
17:00+4nnw399799 1.0 1019558
20:00+5wnw369380 1.3 1020438
11 may, tue
tue1123:00+1w28965 0.0 1020174
02:00−1w129822 0.0 102029
05:00−2w119823 0.0 101922
08:00+4nnw11865 0.0 1018189
11:00+9e127170 0.1 10151101
14:00+8e2374100 0.3 1014617
17:00+8nne127297 0.1 1013275
20:00+6nne2685100 0.1 1014189